| time (UTC) | temp F | wind direction | speed knots | gust knots | rain 1hr in | rain 24hr in | rain mn in | humidity % | barometer mb |
| 20260906050455 | 53 | 338 | 21.7 | 26.9 | 0.00 | 0.00 | 0.00 | 79 | |
| 20260906044124 | 52 | 333 | 19.1 | 24.3 | 0.00 | 0.00 | 0.00 | 82 | |
| 20260906042124 | 52 | 330 | 17.4 | 21.7 | 0.00 | 0.00 | 0.00 | 85 | |
| 20260906040454 | 51 | 332 | 19.1 | 23.5 | 0.00 | 0.00 | 0.00 | 87 | |
| 20260906034454 | 51 | 335 | 20.9 | 26.1 | 0.00 | 0.00 | 0.00 | 88 | |
| 20260906024454 | 50 | 330 | 20.0 | 23.5 | 0.00 | 0.00 | 0.00 | 89 | |
| 20260906022455 | 50 | 329 | 19.1 | 22.6 | 0.00 | 0.00 | 0.00 | 90 | |
| 20260906020454 | 50 | 336 | 20.0 | 23.5 | 0.00 | 0.00 | 0.00 | 90 | |
| 20260906014455 | 50 | 337 | 20.0 | 24.3 | 0.00 | 0.00 | 0.00 | 89 | |
| 20260906012454 | 51 | 335 | 20.0 | 24.3 | 0.00 | 0.00 | 0.00 | 89 | |
| 20260906010455 | 51 | 336 | 20.9 | 24.3 | 0.00 | 0.00 | 0.00 | 89 | |
| 20260906004455 | 52 | 333 | 20.0 | 24.3 | 0.00 | 0.00 | 0.00 | 88 | |
| 20260906002454 | 52 | 342 | 19.1 | 24.3 | 0.00 | 0.00 | 0.00 | 88 | |
| 20260906000455 | 53 | 337 | 18.2 | 22.6 | 0.00 | 0.00 | 0.00 | 86 | |
| 20260905234453 | 53 | 340 | 18.2 | 21.7 | 0.00 | 0.00 | 0.00 | 86 | |
| 20260905232453 | 54 | 344 | 16.5 | 21.7 | 0.00 | 0.00 | 0.00 | 87 | |
| 20260905230453 | 54 | 345 | 18.2 | 21.7 | 0.00 | 0.00 | 0.00 | 86 | |
| 20260905222453 | 54 | 347 | 14.8 | 19.1 | 0.00 | 0.00 | 0.00 | 87 | |
| 20260905220453 | 55 | 351 | 13.9 | 18.2 | 0.00 | 0.00 | 0.00 | 84 | |
| 20260905214453 | 55 | 345 | 14.8 | 18.2 | 0.00 | 0.00 | 0.00 | 86 | |
| 20260905212454 | 55 | 343 | 15.6 | 19.1 | 0.00 | 0.00 | 0.00 | 84 | |
| 20260905210453 | 56 | 338 | 15.6 | 17.4 | 0.00 | 0.00 | 0.00 | 84 | |
| 20260905204453 | 57 | 339 | 14.8 | 17.4 | 0.00 | 0.00 | 0.00 | 83 | |
| 20260905202453 | 57 | 338 | 15.6 | 20.0 | 0.00 | 0.00 | 0.00 | 82 | |
| 20260905200454 | 58 | 335 | 13.9 | 17.4 | 0.00 | 0.00 | 0.00 | 82 | |
| 20260905192122 | 59 | 313 | 13.0 | 15.6 | 0.00 | 0.00 | 0.00 | 79 | |
| 20260905190452 | 58 | 309 | 12.2 | 13.0 | 0.00 | 0.00 | 0.00 | 80 | |
| 20260905184454 | 58 | 309 | 10.4 | 13.0 | 0.00 | 0.00 | 0.00 | 82 | |
| 20260905182451 | 57 | 312 | 8.7 | 10.4 | 0.00 | 0.00 | 0.00 | 84 | |
| 20260905180450 | 58 | 325 | 7.8 | 9.6 | 0.00 | 0.00 | 0.00 | 80 | |
| 20260905174450 | 58 | 337 | 9.6 | 11.3 | 0.00 | 0.00 | 0.00 | 75 | |
| 20260905170452 | 59 | 299 | 7.0 | 9.6 | 0.00 | 0.00 | 0.00 | 77 | |
| 20260905164453 | 61 | 319 | 5.2 | 6.1 | 0.00 | 0.00 | 0.00 | 71 | |
| 20260905162123 | 62 | 337 | 5.2 | 7.0 | 0.00 | 0.00 | 0.00 | 75 | |
| 20260905154452 | 62 | 276 | 11.3 | 14.8 | 0.00 | 0.00 | 0.00 | 75 | |
| 20260905152453 | 62 | 271 | 13.9 | 16.5 | 0.00 | 0.00 | 0.00 | 78 | |
| 20260905150451 | 61 | 263 | 16.5 | 19.1 | 0.00 | 0.00 | 0.00 | 78 | |
| 20260905144452 | 62 | 258 | 18.2 | 21.7 | 0.00 | 0.00 | 0.00 | 79 | |
| 20260905130455 | 64 | 252 | 14.8 | 16.5 | 0.00 | 0.00 | 0.00 | 67 | |
| 20260905124451 | 65 | 251 | 13.0 | 15.6 | 0.00 | 0.00 | 0.00 | 67 | |
| 20260905122121 | 65 | 248 | 12.2 | 15.6 | 0.00 | 0.00 | 0.00 | 65 | |
| 20260905120451 | 65 | 249 | 12.2 | 14.8 | 0.00 | 0.00 | 0.00 | 66 | |
| 20260905114451 | 65 | 251 | 11.3 | 13.0 | 0.00 | 0.00 | 0.00 | 66 | |
| 20260905112453 | 66 | 249 | 7.0 | 9.6 | 0.00 | 0.00 | 0.00 | 62 | |
| 20260905104451 | 64 | 259 | 7.0 | 8.7 | 0.00 | 0.00 | 0.00 | 69 | |
| 20260905102451 | 64 | 274 | 6.1 | 7.0 | 0.00 | 0.00 | 0.00 | 67 | |
| 20260905100451 | 62 | 286 | 7.0 | 7.8 | 0.00 | 0.00 | 0.00 | 72 | |
| 20260905094450 | 63 | 290 | 6.1 | 7.8 | 0.00 | 0.00 | 0.00 | 71 | |
| 20260905092450 | 60 | 294 | 6.1 | 7.8 | 0.00 | 0.00 | 0.00 | 74 | |
| 20260905090452 | 61 | 302 | 7.0 | 7.8 | 0.00 | 0.00 | 0.00 | 73 | |
| 20260905084451 | 61 | 304 | 6.1 | 7.8 | 0.00 | 0.00 | 0.00 | 70 | |
| 20260905082453 | 60 | 316 | 7.0 | 8.7 | 0.00 | 0.00 | 0.00 | 78 | |
| 20260905080449 | 60 | 313 | 7.8 | 8.7 | 0.00 | 0.00 | 0.00 | 77 | |
| 20260905074120 | 61 | 319 | 7.0 | 7.8 | 0.00 | 0.00 | 0.00 | 76 | |
| 20260905072449 | 61 | 307 | 5.2 | 7.0 | 0.00 | 0.00 | 0.00 | 79 | |
| 20260905070453 | 60 | 303 | 5.2 | 7.0 | 0.00 | 0.00 | 0.00 | 79 | |
| 20260905064449 | 59 | 304 | 4.3 | 5.2 | 0.00 | 0.00 | 0.00 | 83 | |
| 20260905062449 | 58 | 316 | 5.2 | 7.0 | 0.00 | 0.00 | 0.00 | 86 | |
| 20260905060450 | 57 | 334 | 4.3 | 5.2 | 0.00 | 0.00 | 0.00 | 87 | |
| 20260905052449 | 56 | 332 | 4.3 | 5.2 | 0.00 | 0.00 | 0.00 | 92 |